Location: Bucquoy
(50.1391°N, 2.7097°E)
Time: 00:12:57
(UTC+00:00)

TSX-5 - Pass Details

Date: 06 May 2021
Orbit: 403 x 1320 km, 68.9° (Epoch: 24 June)

Event Time Altitude Azimuth Distance (km) Brightness Sun altitude
Rises 03:07:27 0° 327° (NNW) 2,343 7.1 -9.9°
Reaches altitude 10° 03:09:23 10° 327° (NNW) 1,503 6.2 -9.7°
Maximum altitude 03:12:37 86° 240° (WSW) 456 3.3 -9.3°
Drops below altitude 10° 03:16:20 10° 150° (SSE) 1,719 6.3 -8.8°
Sets 03:18:41 0° 150° (SSE) 2,724 7.3 -8.6°
